When you browse on this site, cookies collect data to enhance your experience and personalize the content and advertising you see.
Visit our Privacy Policy to learn more. By continuing to use the site, you agree to this use of cookies and data.
  • In Deutschland
  • Länderverzeichnis
  • Für 7 Tage
  • Wassertemperatur
  • Wetterkarte
  • Widgets
  • user-avatar
    Anmelden

    Stündliche Wetter Babruisk

    Heute, 29 Mai, Freitag

    Zeit Temperatur Niederschläge Wind Luftdruck Luftfeuchtigkeit
    00:00 +12°C° 1.1 mm 2 m/S 749 mmHg 92%
    01:00 +12°C° 1.1 mm 2 m/S 748 mmHg 94%
    02:00 +12°C° 0 mm 1 m/S 748 mmHg 97%
    03:00 +12°C° 2.5 mm 2 m/S 748 mmHg 97%
    04:00 +12°C° 2.5 mm 2 m/S 747 mmHg 97%
    05:00 +11°C° 2.5 mm 3 m/S 747 mmHg 97%
    06:00 +11°C° 0.8 mm 4 m/S 747 mmHg 96%
    07:00 +11°C° 0.8 mm 4 m/S 747 mmHg 95%
    08:00 +10°C° 0.8 mm 5 m/S 747 mmHg 94%
    09:00 +10°C° 0.3 mm 5 m/S 747 mmHg 94%
    10:00 +10°C° 0.3 mm 5 m/S 747 mmHg 93%
    11:00 +11°C° 0.3 mm 6 m/S 747 mmHg 93%
    12:00 +11°C° 0.1 mm 6 m/S 747 mmHg 91%
    13:00 +11°C° 0.1 mm 6 m/S 746 mmHg 90%
    14:00 +12°C° 0.1 mm 7 m/S 746 mmHg 89%
    15:00 +13°C° 0 mm 6 m/S 746 mmHg 87%
    16:00 +13°C° 0 mm 6 m/S 746 mmHg 86%
    17:00 +13°C° 0 mm 6 m/S 746 mmHg 84%
    18:00 +13°C° 0 mm 6 m/S 745 mmHg 84%
    19:00 +13°C° 0 mm 6 m/S 745 mmHg 84%
    20:00 +13°C° 0 mm 6 m/S 745 mmHg 84%
    21:00 +13°C° 0 mm 6 m/S 745 mmHg 85%
    22:00 +13°C° 0 mm 6 m/S 744 mmHg 85%
    23:00 +13°C° 0 mm 6 m/S 744 mmHg 85%

    Morgen, 30 Mai, Samstag

    Zeit Temperatur Niederschläge Wind Luftdruck Luftfeuchtigkeit
    00:00 +13°C° 0 mm 6 m/S 744 mmHg 85%
    01:00 +13°C° 0 mm 6 m/S 744 mmHg 85%
    02:00 +13°C° 0 mm 6 m/S 743 mmHg 85%
    03:00 +13°C° 0.1 mm 6 m/S 743 mmHg 87%
    04:00 +13°C° 0.1 mm 6 m/S 743 mmHg 90%
    05:00 +13°C° 0.1 mm 6 m/S 742 mmHg 92%
    06:00 +13°C° 0.3 mm 6 m/S 742 mmHg 93%
    07:00 +13°C° 0.3 mm 6 m/S 742 mmHg 94%
    08:00 +13°C° 0.3 mm 6 m/S 742 mmHg 96%
    09:00 +13°C° 0.1 mm 6 m/S 741 mmHg 95%
    10:00 +12°C° 0.1 mm 7 m/S 741 mmHg 94%
    11:00 +14°C° 0.1 mm 7 m/S 741 mmHg 94%
    12:00 +14°C° 0 mm 7 m/S 740 mmHg 93%
    13:00 +14°C° 0 mm 7 m/S 740 mmHg 91%
    14:00 +14°C° 0 mm 6 m/S 740 mmHg 90%
    15:00 +14°C° 2.8 mm 6 m/S 739 mmHg 92%
    16:00 +15°C° 2.8 mm 6 m/S 738 mmHg 95%
    17:00 +15°C° 2.8 mm 6 m/S 738 mmHg 97%
    18:00 +15°C° 4.3 mm 7 m/S 737 mmHg 96%
    19:00 +15°C° 4.3 mm 8 m/S 737 mmHg 95%
    20:00 +16°C° 4.3 mm 9 m/S 736 mmHg 94%
    21:00 +16°C° 1.3 mm 9 m/S 737 mmHg 94%
    22:00 +16°C° 1.3 mm 9 m/S 737 mmHg 94%
    23:00 +15°C° 1.3 mm 8 m/S 737 mmHg 94%

    übermorgen, 31 Mai, Sonntag

    Zeit Temperatur Niederschläge Wind Luftdruck Luftfeuchtigkeit
    00:00 +15°C° 0.1 mm 7 m/S 737 mmHg 95%
    01:00 +14°C° 0.1 mm 6 m/S 738 mmHg 95%
    02:00 +13°C° 0.1 mm 5 m/S 738 mmHg 96%
    03:00 +13°C° 0.1 mm 4 m/S 739 mmHg 96%
    04:00 +13°C° 0.1 mm 4 m/S 739 mmHg 97%
    05:00 +13°C° 0.1 mm 3 m/S 740 mmHg 97%
    06:00 +13°C° 0.6 mm 3 m/S 740 mmHg 96%
    07:00 +14°C° 0.6 mm 3 m/S 741 mmHg 96%
    08:00 +14°C° 0.6 mm 3 m/S 741 mmHg 95%
    09:00 +14°C° 0.4 mm 4 m/S 742 mmHg 93%
    10:00 +15°C° 0.4 mm 5 m/S 742 mmHg 91%
    11:00 +15°C° 0.4 mm 6 m/S 743 mmHg 89%
    12:00 +15°C° 0.3 mm 6 m/S 743 mmHg 88%
    13:00 +15°C° 0.3 mm 7 m/S 743 mmHg 88%
    14:00 +15°C° 0.3 mm 7 m/S 744 mmHg 87%
    15:00 +14°C° 0.1 mm 7 m/S 744 mmHg 86%
    16:00 +12°C° 0.1 mm 7 m/S 744 mmHg 85%
    17:00 +12°C° 0.1 mm 7 m/S 745 mmHg 84%
    18:00 +12°C° 0 mm 7 m/S 745 mmHg 83%
    19:00 +11°C° 0 mm 7 m/S 746 mmHg 83%
    20:00 +11°C° 0 mm 7 m/S 746 mmHg 82%
    21:00 +11°C° 0 mm 6 m/S 747 mmHg 84%
    22:00 +10°C° 0 mm 5 m/S 747 mmHg 87%
    23:00 +10°C° 0 mm 4 m/S 748 mmHg 89%

    1 Juni, Montag

    Zeit Temperatur Niederschläge Wind Luftdruck Luftfeuchtigkeit
    00:00 +10°C° 0 mm 4 m/S 748 mmHg 88%
    01:00 +9°C° 0 mm 5 m/S 748 mmHg 87%
    02:00 +8°C° 0 mm 5 m/S 749 mmHg 86%
    03:00 +8°C° 0 mm 5 m/S 749 mmHg 84%
    04:00 +7°C° 0 mm 5 m/S 749 mmHg 82%
    05:00 +7°C° 0 mm 5 m/S 749 mmHg 80%
    06:00 +8°C° 0 mm 5 m/S 750 mmHg 74%
    07:00 +9°C° 0 mm 6 m/S 750 mmHg 67%
    08:00 +11°C° 0 mm 6 m/S 751 mmHg 61%
    09:00 +11°C° 0 mm 6 m/S 751 mmHg 59%
    10:00 +13°C° 0 mm 6 m/S 751 mmHg 56%
    11:00 +14°C° 0 mm 6 m/S 751 mmHg 54%
    12:00 +14°C° 0 mm 6 m/S 751 mmHg 55%
    13:00 +14°C° 0 mm 6 m/S 751 mmHg 55%
    14:00 +14°C° 0 mm 5 m/S 751 mmHg 56%
    15:00 +14°C° 0 mm 5 m/S 751 mmHg 57%
    16:00 +14°C° 0 mm 5 m/S 751 mmHg 58%
    17:00 +14°C° 0 mm 4 m/S 751 mmHg 59%
    18:00 +12°C° 0 mm 4 m/S 751 mmHg 66%
    19:00 +11°C° 0 mm 3 m/S 751 mmHg 72%
    20:00 +10°C° 0 mm 2 m/S 751 mmHg 78%
    21:00 +9°C° 0 mm 2 m/S 751 mmHg 80%
    22:00 +8°C° 0 mm 2 m/S 751 mmHg 82%
    23:00 +8°C° 0 mm 1 m/S 751 mmHg 84%

    2 Juni, Dienstag

    Zeit Temperatur Niederschläge Wind Luftdruck Luftfeuchtigkeit
    00:00 +7°C° 0 mm 1 m/S 751 mmHg 85%
    01:00 +7°C° 0 mm 1 m/S 751 mmHg 87%
    02:00 +6°C° 0 mm 1 m/S 751 mmHg 88%
    03:00 +7°C° 0 mm 1 m/S 751 mmHg 88%
    04:00 +7°C° 0 mm 1 m/S 751 mmHg 87%
    05:00 +6°C° 0 mm 2 m/S 751 mmHg 87%
    06:00 +8°C° 0 mm 2 m/S 751 mmHg 79%
    07:00 +10°C° 0 mm 2 m/S 751 mmHg 71%
    08:00 +12°C° 0 mm 3 m/S 751 mmHg 63%
    09:00 +13°C° 0 mm 3 m/S 751 mmHg 59%
    10:00 +14°C° 0 mm 3 m/S 751 mmHg 56%
    11:00 +14°C° 0 mm 3 m/S 751 mmHg 52%
    12:00 +16°C° 0.1 mm 3 m/S 750 mmHg 52%
    13:00 +16°C° 0.1 mm 3 m/S 750 mmHg 53%
    14:00 +16°C° 0.1 mm 3 m/S 750 mmHg 53%
    15:00 +16°C° 0.1 mm 3 m/S 750 mmHg 55%
    16:00 +16°C° 0.1 mm 3 m/S 749 mmHg 57%
    17:00 +16°C° 0.1 mm 3 m/S 749 mmHg 59%
    18:00 +13°C° 0 mm 3 m/S 749 mmHg 65%
    19:00 +12°C° 0 mm 2 m/S 749 mmHg 72%
    20:00 +10°C° 0 mm 2 m/S 749 mmHg 79%
    21:00 +10°C° 0 mm 1 m/S 749 mmHg 81%
    22:00 +9°C° 0 mm 1 m/S 749 mmHg 83%
    23:00 +8°C° 0 mm 1 m/S 749 mmHg 84%

    3 Juni, Mittwoch

    Zeit Temperatur Niederschläge Wind Luftdruck Luftfeuchtigkeit
    00:00 +8°C° 0 mm 1 m/S 749 mmHg 86%
    01:00 +7°C° 0 mm 1 m/S 749 mmHg 87%
    02:00 +7°C° 0 mm 1 m/S 749 mmHg 88%
    03:00 +7°C° 0 mm 1 m/S 749 mmHg 88%
    04:00 +7°C° 0 mm 1 m/S 749 mmHg 88%
    05:00 +8°C° 0 mm 1 m/S 749 mmHg 87%
    06:00 +10°C° 0 mm 1 m/S 749 mmHg 80%
    07:00 +12°C° 0 mm 1 m/S 749 mmHg 72%
    08:00 +14°C° 0 mm 1 m/S 749 mmHg 64%
    09:00 +15°C° 0 mm 1 m/S 749 mmHg 59%
    10:00 +16°C° 0 mm 1 m/S 748 mmHg 53%
    11:00 +18°C° 0 mm 1 m/S 748 mmHg 48%
    12:00 +18°C° 0 mm 1 m/S 748 mmHg 48%
    13:00 +19°C° 0 mm 1 m/S 748 mmHg 48%
    14:00 +19°C° 0 mm 1 m/S 747 mmHg 48%
    15:00 +18°C° 0 mm 1 m/S 747 mmHg 49%
    16:00 +18°C° 0 mm 1 m/S 747 mmHg 50%
    17:00 +18°C° 0 mm 1 m/S 747 mmHg 51%
    18:00 +16°C° 0 mm 1 m/S 747 mmHg 56%
    19:00 +13°C° 0 mm 0 m/S 746 mmHg 62%
    20:00 +12°C° 0 mm 0 m/S 746 mmHg 67%
    21:00 +11°C° 0 mm 0 m/S 746 mmHg 69%
    22:00 +11°C° 0 mm 1 m/S 747 mmHg 70%
    23:00 +10°C° 0 mm 1 m/S 747 mmHg 72%
    Mehr zeigen